{"data":{"norad_id":62098,"epoch":"2026-05-24T20:08:16.175904Z","epoch_age_seconds":88157,"freshness":"FRESH","line1":"1 62098U 24220L   26144.83907611  .00171689  00000+0  13060-2 0  9990","line2":"2 62098  43.0002 303.7001 0004249 256.0130 104.0266 15.70979410 86934","mean_motion":15.7097941,"eccentricity":0.0004249,"inclination_deg":43.0002,"raan_deg":303.7001,"arg_perigee_deg":256.013,"mean_anomaly_deg":104.0266,"bstar":0.001306,"rev_number":8693,"period_min":91.662563546902,"perigee_km":353.23525529433,"apogee_km":358.95800703409,"semimajor_km":6734.2336311642,"source":"CELESTRAK","updated_at":"2026-05-25T13:38:19.559084Z"}}